GFSFLT2_700_spd_069.txt.gz
Wind_Speed
35 35 34 37 38 37 31 25 24 18 16 18 17 15 12 7 5 2 2 4 5 6 7 9 9 11 13 17 17 17 17 17
35 41 43 41 39 39 30 27 26 24 20 19 17 14 10 7 3 1 3 3 5 7 7 8 10 11 14 16 16 17 17 18
35 38 39 41 43 40 39 27 20 19 20 17 15 13 10 8 4 3 4 4 6 6 8 10 10 13 15 15 17 17 18 18
24 30 26 27 24 31 34 25 17 19 18 15 13 10 10 6 5 5 6 7 7 9 11 11 13 14 15 18 18 18 18 21
24 29 35 24 25 33 24 17 19 20 18 14 13 10 9 7 8 8 6 8 10 11 13 13 14 16 17 18 17 17 21 23
39 37 25 32 23 25 23 18 18 16 14 12 11 10 10 10 10 9 9 10 12 14 15 16 16 18 18 16 17 20 23 26
17 14 26 38 38 36 19 14 14 13 11 11 12 11 10 9 10 9 11 12 13 15 16 17 19 19 18 19 21 23 25 26
18 15 40 30 23 21 17 15 15 15 14 12 10 9 9 8 9 12 14 13 14 16 15 17 18 17 19 21 23 25 26 28
37 34 29 24 20 18 16 16 15 13 12 11 10 8 7 7 10 11 10 13 16 12 14 16 16 20 22 25 27 28 29 30
24 22 19 19 21 19 17 16 14 13 12 11 10 9 9 10 12 13 12 13 11 12 15 16 19 23 27 29 30 30 32 34
20 20 20 20 20 20 17 13 11 11 9 9 9 7 9 10 12 12 11 11 13 14 16 19 22 26 28 27 28 30 34 36
19 18 20 20 19 16 14 10 9 8 8 7 8 9 10 11 12 12 12 13 14 17 21 24 26 27 28 28 29 33 35 38
19 18 17 15 14 11 9 7 7 6 7 11 9 10 12 13 14 14 15 16 19 22 24 25 28 30 33 35 35 36 38 39
17 16 14 13 12 11 10 9 7 8 9 9 9 12 14 15 15 16 16 19 24 27 27 25 31 28 31 35 37 39 40 41
13 13 13 12 11 13 13 9 10 8 10 11 12 15 16 16 16 16 17 21 23 24 27 29 36 31 37 36 38 41 42 42
16 18 17 15 15 13 13 12 12 14 14 14 13 15 15 16 16 16 19 24 31 29 26 30 32 32 35 38 40 39 42 45
16 17 19 19 18 15 15 15 14 17 18 15 13 15 16 18 19 21 30 31 30 29 33 40 33 37 38 39 39 40 40 43
17 19 20 20 21 17 16 17 17 18 17 16 15 17 17 20 23 29 31 32 33 34 31 44 45 37 40 40 39 39 39 37
18 16 15 15 16 18 16 18 20 19 19 18 17 19 22 24 26 29 36 35 35 33 42 41 42 41 40 40 38 35 34 36
15 11 13 14 13 15 18 20 20 20 21 20 21 23 24 27 31 31 35 36 37 33 42 37 40 38 42 36 31 33 34 37

GFSFLT2_700_spd_072.txt.gz
Wind_Speed
27 31 31 37 36 32 28 26 25 19 19 15 15 17 15 13 11 8 6 4 4 4 4 5 7 7 9 12 13 14 14 13
33 35 37 37 39 32 29 28 24 22 22 17 18 16 14 11 8 7 4 2 2 3 4 6 6 8 10 11 13 12 12 12
32 40 38 34 30 38 31 26 26 22 25 22 18 15 13 11 9 6 4 1 1 2 5 6 7 8 10 11 13 12 12 12
25 29 32 46 43 43 37 32 30 24 21 21 18 14 11 9 6 4 3 1 3 5 7 8 10 10 11 12 13 13 12 14
27 34 35 37 32 30 39 37 30 24 24 19 15 14 11 8 7 6 3 5 6 7 9 10 12 12 14 15 14 13 15 17
24 33 29 32 29 21 36 31 30 25 20 18 16 13 10 10 9 5 6 9 8 9 10 12 13 15 16 16 14 16 18 21
40 38 38 31 32 39 34 26 28 25 19 17 15 13 13 11 8 8 9 9 10 12 14 15 17 18 15 14 15 17 20 23
36 24 23 31 18 27 36 30 25 19 17 17 16 14 11 10 9 9 10 12 13 15 17 16 15 13 13 16 19 22 22 23
27 32 33 36 30 27 22 18 17 18 18 16 14 12 11 10 11 11 11 14 15 15 14 14 14 14 17 20 22 22 23 23
39 39 30 26 24 22 20 20 21 19 18 16 13 13 12 12 12 12 12 11 12 13 13 13 15 18 22 24 24 25 25 25
26 26 23 20 21 21 22 21 20 18 17 16 15 14 14 15 14 13 11 11 12 11 13 16 20 21 23 25 26 28 30 32
16 17 19 19 21 19 19 18 17 16 15 14 13 14 15 14 13 12 12 12 12 13 17 20 20 21 23 26 25 27 31 33
16 17 18 19 18 16 14 12 13 14 14 14 13 14 13 11 14 13 13 12 14 16 19 22 23 24 27 33 33 32 31 32
18 17 17 16 15 15 14 14 14 13 13 14 16 15 13 14 13 13 14 15 17 19 21 24 22 20 26 29 31 35 42 38
18 17 16 16 17 18 17 14 13 13 12 14 16 13 14 13 13 14 15 18 22 23 24 27 33 35 32 34 34 33 36 39
20 20 20 19 19 18 18 17 15 14 15 15 17 16 14 13 13 15 17 21 25 27 32 34 30 34 34 40 37 37 35 38
22 21 21 21 21 19 19 20 20 19 19 22 17 17 17 15 16 19 21 24 28 32 35 33 38 32 38 41 39 36 37 37
23 22 22 23 23 22 22 23 23 23 23 18 19 20 19 18 19 22 24 25 29 36 34 29 27 33 38 36 35 36 36 35
22 22 23 22 23 23 23 21 24 25 25 22 21 21 20 21 24 25 26 28 32 31 30 24 32 33 37 38 38 37 34 31
23 25 22 20 19 18 18 26 28 25 26 23 22 23 24 25 27 27 25 28 32 38 31 36 38 38 40 40 39 37 32 32

GFSFLT2_700_spd_075.txt.gz
Wind_Speed
32 32 33 32 31 31 29 26 23 20 20 21 21 20 15 16 14 12 10 7 6 6 5 5 6 5 6 8 9 10 9 9
26 35 32 35 35 36 33 29 25 24 22 20 20 15 18 15 13 11 8 6 4 4 2 3 3 5 6 7 8 8 8 8
23 29 36 39 39 37 30 29 28 26 23 21 24 21 19 15 14 9 6 4 4 1 1 2 4 6 7 8 10 10 9 10
22 27 37 40 44 38 39 36 29 25 25 26 20 19 17 14 10 8 8 7 3 1 2 5 7 8 8 10 12 11 10 13
21 28 33 31 34 23 32 33 32 32 31 22 21 19 14 14 11 11 7 4 5 3 6 6 8 10 12 13 13 12 12 14
20 22 27 29 38 46 29 33 43 40 34 26 20 17 15 11 13 9 8 8 5 7 7 8 11 14 15 15 12 11 12 17
19 23 29 28 31 28 25 34 41 32 21 17 20 16 13 15 11 9 8 8 8 10 11 13 14 14 12 9 10 12 14 17
17 34 32 35 28 29 34 42 36 27 26 24 25 17 14 13 12 10 9 9 11 14 14 14 13 11 9 11 14 16 15 17
32 36 40 34 22 18 24 36 34 30 30 21 18 16 14 15 12 10 10 11 15 14 14 13 12 12 13 13 16 16 18 19
35 12 18 15 28 30 32 32 27 25 22 19 19 18 16 14 13 11 10 13 13 12 12 12 13 14 14 15 17 20 21 23
21 30 28 21 20 23 23 25 25 20 20 20 19 18 16 15 14 12 13 13 12 11 12 13 14 16 17 16 17 25 25 27
29 28 21 18 19 22 23 22 21 22 20 20 20 17 15 16 15 14 14 13 13 14 14 15 16 18 20 22 21 18 25 28
17 20 16 17 17 18 18 17 17 18 19 18 17 17 17 18 17 14 14 14 15 16 16 17 19 20 19 18 24 32 34 34
19 17 17 17 17 16 15 15 15 17 17 18 18 19 19 19 16 14 13 14 16 17 18 20 22 21 25 30 29 29 39 46
19 18 17 16 17 18 17 16 16 17 17 18 19 19 18 18 15 15 15 16 18 19 21 22 24 28 27 29 27 29 34 34
15 17 18 19 19 20 19 17 16 17 18 17 18 25 19 18 16 18 17 19 20 21 24 27 28 32 31 25 28 32 34 35
19 19 20 21 21 21 19 20 21 22 22 21 21 19 23 22 20 20 21 21 23 25 27 28 32 34 33 26 32 33 34 36
22 23 22 23 22 23 23 22 24 21 24 27 26 21 18 25 25 24 25 25 25 27 32 33 34 31 26 32 33 32 34 36
24 24 24 24 24 25 24 24 26 24 26 29 31 28 27 26 27 28 29 28 28 32 35 32 37 36 31 34 33 36 37 38
25 25 24 25 25 23 24 25 28 23 28 27 30 32 29 29 30 32 31 31 30 33 32 28 37 37 36 35 35 37 40 36

GFSFLT2_700_spd_078.txt.gz
Wind_Speed
27 32 31 29 29 28 26 24 21 18 15 19 21 22 20 19 17 15 13 11 10 9 7 6 5 5 6 6 7 9 6 12
38 35 34 31 29 29 28 27 25 20 20 23 24 23 23 19 17 14 13 12 9 7 5 4 1 3 4 4 5 7 11 10
5 18 36 34 34 35 33 29 25 24 26 25 25 23 17 17 17 15 12 8 8 5 3 2 1 3 4 6 7 10 11 9
7 1 19 30 35 38 37 32 30 29 27 24 20 19 24 21 19 14 12 8 5 4 4 2 3 5 6 8 10 9 11 8
10 12 21 35 37 33 48 49 43 39 40 34 26 26 23 19 15 13 8 6 7 5 5 4 7 10 11 11 10 8 11 8
8 17 27 29 34 33 28 28 36 50 36 34 35 25 22 17 14 10 9 9 8 8 5 7 10 12 11 10 8 8 13 9
11 24 30 30 32 24 32 35 39 37 32 32 27 22 19 15 13 12 11 11 10 7 8 9 11 10 8 6 6 8 11 10
16 18 18 25 32 36 32 27 38 33 33 33 29 30 21 16 13 11 11 11 9 9 10 11 10 8 8 9 10 10 10 16
15 17 26 45 44 39 38 31 34 39 41 33 26 23 16 17 13 12 12 9 9 10 12 11 9 10 10 12 9 9 10 14
17 29 31 30 29 26 25 16 37 44 39 29 24 18 16 16 14 14 11 9 10 11 10 10 11 12 14 14 12 10 13 10
20 16 21 17 18 15 15 25 34 27 23 16 14 17 19 18 16 15 11 11 11 11 10 12 13 15 15 15 15 16 14 16
9 24 29 28 30 33 30 30 27 22 20 19 18 19 19 17 18 13 15 14 12 12 12 14 15 14 17 19 17 15 20 26
23 17 18 18 19 20 23 22 23 23 22 21 20 19 19 18 19 16 16 15 13 14 14 15 16 15 16 17 22 24 24 27
22 17 13 13 13 15 18 18 19 19 18 18 18 19 19 18 20 17 19 17 15 16 15 18 21 19 18 21 23 27 27 25
18 17 15 14 15 17 17 17 16 16 16 17 17 18 18 20 21 18 21 20 17 18 18 21 23 23 20 23 23 21 25 28
14 14 16 15 15 15 15 13 12 12 15 17 17 18 21 20 23 24 23 23 21 21 22 23 22 28 29 28 27 30 28 30
14 17 17 18 17 16 16 15 16 17 18 17 18 22 23 20 21 25 26 25 26 24 25 24 26 26 30 35 31 28 31 34
17 16 16 18 20 20 20 19 20 20 18 18 22 24 24 25 23 26 29 29 31 29 26 27 29 29 30 31 32 34 35 33
20 21 21 21 19 20 22 21 22 22 21 22 25 26 25 31 33 31 31 32 34 31 30 32 32 32 31 30 32 34 34 35
24 23 22 24 22 19 22 24 24 27 26 22 27 27 27 29 35 36 34 37 35 33 34 35 37 36 36 34 30 31 36 37

GFSFLT2_700_spd_081.txt.gz
Wind_Speed
31 38 40 40 37 34 32 28 25 22 18 18 23 24 24 21 20 19 17 15 14 12 11 10 7 7 3 3 6 9 9 6
3 34 48 43 40 36 32 29 26 23 20 23 26 25 24 22 20 18 16 15 14 11 9 7 5 3 1 3 6 8 9 8
37 18 60 44 41 35 31 29 26 24 24 26 28 27 25 25 21 18 17 13 12 8 7 4 2 1 1 3 8 6 5 5
10 15 33 37 36 32 33 31 30 26 27 29 29 29 25 22 21 17 14 12 10 7 6 2 2 2 2 5 8 7 4 4
6 7 6 10 24 35 34 35 33 29 32 35 34 30 26 19 24 21 16 11 9 6 4 3 3 4 3 6 7 4 2 4
6 11 14 22 28 28 31 38 33 34 41 37 35 37 22 23 22 16 14 12 8 3 7 7 5 5 6 6 5 3 4 4
2 3 10 23 28 26 36 40 29 34 41 32 36 28 25 28 20 17 13 11 5 7 9 7 7 6 4 5 6 7 7 5
5 5 16 15 16 29 33 32 28 35 37 38 38 27 28 25 20 14 12 10 6 10 9 8 8 6 6 6 6 9 7 6
4 9 11 19 18 27 31 37 32 40 39 38 35 27 29 18 14 16 14 9 9 10 9 9 7 7 7 7 9 9 9 6
17 10 17 15 24 32 38 31 33 33 29 31 29 31 26 25 20 15 11 9 11 9 10 8 7 6 8 8 9 9 13 13
14 6 11 23 40 39 32 28 18 29 37 31 34 33 27 20 18 15 12 14 11 11 9 9 8 9 11 10 11 11 12 15
11 6 14 19 16 21 21 19 16 24 36 31 26 31 23 19 16 16 17 16 12 11 10 11 11 11 13 14 12 13 16 18
6 15 21 21 21 24 24 22 20 25 24 24 25 23 21 18 18 18 18 15 14 13 14 15 13 12 14 15 18 20 21 21
25 23 23 21 19 21 21 22 20 18 18 18 17 16 18 20 19 17 19 18 17 17 17 18 18 15 16 15 21 23 20 21
17 17 18 18 18 19 19 19 19 20 18 16 15 16 18 19 14 17 21 21 19 19 21 21 21 18 18 20 24 26 28 24
12 14 13 15 15 16 17 14 12 12 14 14 16 17 19 18 19 18 20 25 22 23 25 24 24 23 21 23 27 27 29 23
9 12 13 13 14 14 13 14 12 13 15 15 15 16 17 19 20 17 19 23 26 27 29 28 26 28 28 29 30 28 25 25
11 11 13 13 13 14 13 12 14 15 14 13 14 16 20 21 22 25 27 25 27 31 32 31 28 30 33 32 32 33 30 30
13 13 13 13 13 12 12 13 15 16 16 16 16 19 22 22 23 25 29 34 33 34 35 35 34 32 34 34 37 38 37 33
18 18 17 18 17 17 17 17 18 19 20 20 20 22 20 21 24 27 29 33 38 41 36 38 35 34 36 37 39 41 40 29

GFSFLT2_700_spd_084.txt.gz
Wind_Speed
26 31 49 58 42 49 44 39 33 29 23 21 25 27 26 25 23 21 19 17 15 13 10 7 4 2 3 5 4 6 6 5
23 43 46 37 66 54 47 38 33 29 25 25 28 29 28 26 24 22 20 18 16 13 12 9 5 3 4 3 5 6 5 3
20 23 33 34 65 53 50 39 34 30 27 29 31 31 30 27 26 23 21 19 16 14 11 5 4 3 6 5 4 5 4 3
21 13 29 61 52 51 41 39 35 30 29 31 33 31 30 29 27 23 19 15 12 11 7 5 3 4 6 5 3 2 2 2
3 6 33 44 49 47 42 38 34 31 30 31 33 34 36 35 27 18 15 14 14 11 9 5 5 6 6 6 2 1 1 3
6 5 16 17 33 37 36 29 31 33 33 34 39 40 35 30 24 17 20 18 11 8 6 4 5 8 9 5 0 1 2 3
7 12 14 11 22 25 29 36 35 35 34 36 40 36 33 26 24 20 19 18 10 11 7 5 7 10 9 3 2 3 4 3
6 10 14 16 22 33 34 35 38 40 27 35 40 29 31 28 26 19 19 14 13 11 8 6 10 11 5 5 5 7 6 4
7 11 10 10 24 33 36 39 25 32 32 41 32 32 29 33 29 22 19 14 12 11 8 9 12 9 7 6 7 8 9 6
4 1 14 6 25 32 30 37 36 34 41 42 40 36 32 33 23 22 18 13 13 12 9 11 11 8 9 9 9 10 10 11
15 12 11 21 17 21 29 35 34 36 36 40 33 36 37 25 25 21 18 15 15 13 11 11 12 12 11 9 12 12 9 10
14 22 13 16 21 27 39 41 28 28 22 26 33 33 32 26 27 25 19 17 16 13 14 15 15 13 12 11 10 11 14 15
15 16 15 22 23 21 25 22 19 22 21 28 33 27 27 32 27 24 19 17 16 17 17 16 15 14 14 13 13 14 15 17
19 18 19 15 12 17 22 22 20 22 27 28 28 30 32 28 27 22 16 18 17 18 19 19 17 18 17 18 18 18 19 21
19 20 20 22 24 26 27 29 29 28 29 31 30 27 27 27 25 21 18 18 19 21 22 23 21 21 21 20 21 23 22 23
16 18 18 18 19 19 19 20 19 23 27 25 26 27 29 23 20 19 19 20 23 21 24 25 26 24 25 25 25 27 27 30
12 13 15 16 15 15 14 16 15 15 17 19 21 21 22 23 20 21 21 23 23 23 24 28 29 29 30 29 31 31 31 33
10 11 11 11 12 13 12 12 14 16 17 16 17 18 17 19 18 18 19 23 25 25 25 30 33 35 36 35 35 34 34 34
9 10 10 11 12 12 12 14 15 13 13 13 14 15 17 16 19 19 20 22 23 23 29 31 38 38 41 36 33 35 36 37
13 12 13 11 11 10 10 12 16 17 17 16 17 18 18 20 22 23 23 24 26 28 28 37 36 42 44 41 33 37 37 42

GFSFLT2_700_spd_087.txt.gz
Wind_Speed
22 24 26 40 46 40 33 43 43 34 30 25 26 29 29 27 25 24 22 19 16 12 9 9 8 4 4 4 2 2 3 3
16 16 25 29 33 43 39 52 36 40 31 26 31 33 31 28 26 24 22 18 15 12 9 7 5 3 2 1 0 2 2 3
13 18 27 33 41 43 56 56 42 39 30 30 35 35 32 31 27 25 23 21 17 12 7 4 3 3 2 1 4 4 3 4
17 17 41 46 51 52 39 47 49 37 34 35 37 36 35 33 30 27 24 21 15 12 7 4 5 2 4 5 8 4 2 3
14 25 21 58 61 65 63 44 39 40 36 37 40 39 37 34 33 32 29 17 14 10 6 7 4 3 3 6 8 4 3 1
8 8 12 35 47 58 51 47 42 39 36 37 39 37 38 40 35 30 20 15 15 12 11 7 9 4 5 6 6 4 2 1
8 2 15 25 45 48 49 44 39 35 36 38 39 41 41 33 30 25 24 19 14 16 10 9 10 6 7 7 7 5 4 3
9 9 13 12 30 38 46 41 40 42 37 39 39 40 38 26 27 24 22 18 16 14 10 13 12 9 8 8 8 6 6 6
11 12 11 17 17 25 30 35 35 34 41 40 35 38 32 25 28 22 23 18 19 15 11 13 13 10 8 10 9 7 7 7
9 17 14 18 22 29 30 35 36 41 39 39 39 39 27 30 29 26 25 20 19 13 12 13 12 9 11 12 11 9 8 10
10 9 15 15 21 25 37 27 39 44 44 34 40 34 32 32 30 26 25 22 17 14 14 14 14 12 14 13 12 10 11 11
17 11 13 16 11 33 25 26 37 41 36 34 38 41 38 28 32 32 28 23 17 16 17 16 14 14 15 15 14 12 12 13
14 19 21 15 24 23 26 30 34 33 37 37 40 33 33 33 34 29 24 20 17 20 19 16 14 15 17 17 17 17 16 14
17 14 19 16 24 19 23 23 19 27 33 27 26 26 35 38 31 28 22 23 23 22 18 17 18 16 17 19 21 20 20 20
15 15 17 16 17 20 21 24 26 26 29 29 27 29 38 38 34 26 25 24 25 22 21 20 21 21 21 23 24 23 22 24
13 15 18 19 24 25 25 27 25 25 29 29 28 31 32 33 31 27 25 27 28 26 23 20 21 24 25 26 28 27 28 30
11 13 15 19 21 20 20 20 21 24 25 25 25 27 31 29 26 28 31 32 28 25 22 22 19 22 27 29 32 33 33 33
8 9 11 13 16 18 20 20 20 21 22 22 25 27 26 26 26 24 27 28 27 26 22 26 26 24 29 32 37 36 36 35
5 7 6 7 9 11 14 14 15 14 15 17 20 22 21 20 24 26 27 25 25 26 25 25 27 28 34 36 28 39 40 42
8 6 5 7 8 9 11 13 13 15 16 17 19 20 21 23 26 27 27 25 27 26 26 26 30 35 33 37 36 35 41 39

GFSFLT2_700_spd_093.txt.gz
Wind_Speed
24 34 40 41 36 35 30 31 28 29 28 25 22 23 20 21 19 19 20 18 17 15 13 10 8 8 6 5 3 2 2 3
18 15 14 25 23 33 35 37 30 27 30 28 29 26 22 21 22 21 22 21 18 16 14 12 9 7 5 3 3 2 4 3
17 21 20 20 29 36 43 40 31 35 30 36 36 31 26 24 24 24 24 21 19 17 13 11 8 5 4 4 3 3 4 5
17 18 17 25 33 38 48 43 41 40 36 42 45 32 27 27 27 27 24 22 20 17 14 11 8 7 4 3 1 3 6 7
17 20 20 25 30 42 43 46 41 41 40 45 40 38 32 32 31 31 27 24 22 18 14 10 8 5 3 3 3 4 6 6
26 24 24 27 31 41 43 45 39 47 45 44 48 41 36 35 33 31 27 24 21 17 15 9 6 7 4 4 7 5 6 6
20 26 29 35 39 44 45 35 45 44 42 45 41 42 37 36 35 30 27 25 19 15 13 8 9 6 7 5 8 7 7 5
16 18 21 25 35 46 53 45 50 46 54 51 42 40 38 36 35 30 28 22 17 17 13 10 11 11 8 8 9 9 8 6
10 13 14 25 24 31 52 52 42 44 57 47 47 40 39 37 34 32 27 23 19 17 12 9 15 12 10 9 11 11 7 8
12 11 10 8 9 14 47 48 41 46 52 47 41 39 38 37 36 29 27 25 16 13 13 15 18 13 11 10 11 11 9 9
12 11 7 3 18 9 33 41 35 36 41 42 41 41 39 37 31 32 28 25 21 22 18 19 17 13 14 12 12 12 11 9
12 9 4 6 14 23 36 42 27 25 44 41 39 40 36 34 34 30 26 21 21 22 21 21 17 17 15 12 13 13 12 11
9 11 9 8 9 13 27 33 30 27 37 42 42 47 45 39 35 33 28 25 30 25 23 22 20 18 16 14 14 14 14 15
14 14 14 13 17 17 19 24 34 36 37 37 36 41 47 50 44 36 33 31 31 31 24 23 21 21 18 17 19 17 15 17
13 23 15 16 15 17 23 25 34 28 33 37 40 39 35 41 37 40 39 33 33 25 26 26 23 23 20 22 23 22 20 20
13 18 19 21 19 16 15 22 33 17 26 32 33 41 40 36 48 52 45 35 30 25 27 27 26 25 26 26 25 24 25 26
8 11 11 19 23 16 16 22 15 22 25 28 33 32 45 33 32 41 40 34 28 29 29 30 29 28 27 28 29 28 27 28
7 8 9 10 11 14 22 23 23 21 23 30 23 24 24 28 32 36 30 33 31 29 30 31 32 32 31 32 35 37 35 33
5 7 8 9 11 12 14 17 21 19 19 22 25 26 29 31 33 32 32 35 32 34 36 32 38 38 39 40 43 38 35 35
4 5 6 7 8 9 11 12 14 15 17 20 19 18 20 23 21 25 32 38 38 38 37 37 40 42 43 44 45 35 35 37

GFSFLT2_700_spd_096.txt.gz
Wind_Speed
22 27 46 41 44 38 34 29 30 31 30 25 20 17 13 13 13 17 17 19 18 16 14 12 9 7 6 4 3 2 3 4
20 20 13 46 38 39 39 36 33 30 29 28 16 20 20 13 14 18 20 19 17 16 14 10 9 6 3 1 1 4 3 4
19 16 13 29 30 30 41 39 39 31 30 28 22 18 21 15 18 20 21 20 18 16 14 11 7 5 3 2 2 3 4 3
17 13 10 18 18 36 40 31 35 35 34 32 29 24 26 22 22 23 23 22 20 17 14 11 9 6 4 1 2 4 4 5
23 17 19 15 22 32 45 40 39 40 35 35 31 30 32 23 26 28 28 25 23 20 15 12 10 6 3 2 2 4 5 7
22 22 21 20 20 30 36 38 42 41 41 39 34 35 37 29 28 29 29 28 24 18 15 12 10 8 5 3 3 3 3 6
20 26 26 26 20 23 31 36 43 41 40 40 34 38 40 32 30 31 31 28 23 19 17 13 12 9 5 4 3 4 5 8
14 25 29 29 32 28 33 41 46 51 44 37 40 39 38 38 31 32 31 27 24 20 16 14 11 8 4 8 6 5 7 9
13 14 18 25 31 35 40 39 37 47 50 40 41 45 40 43 34 33 32 28 25 21 17 14 12 7 9 11 10 7 9 10
14 12 17 21 26 34 40 48 55 44 45 47 43 48 43 43 38 35 34 29 25 19 18 17 13 11 13 13 10 9 9 10
14 15 13 18 18 20 19 48 50 48 41 46 39 47 42 36 38 36 33 32 26 23 20 15 15 15 18 15 12 11 11 12
14 13 10 6 13 13 8 34 50 53 46 42 46 47 38 37 39 35 34 32 28 28 22 18 19 23 18 16 13 14 13 14
10 11 8 2 7 9 15 32 42 42 39 47 39 41 35 42 36 37 36 32 27 25 20 18 23 20 20 17 17 16 15 16
12 10 8 6 7 12 21 23 25 36 42 40 38 38 41 38 38 35 36 32 27 26 25 23 22 21 21 21 21 20 16 16
11 14 8 7 7 8 18 23 27 28 37 38 38 40 44 40 39 38 38 33 30 29 29 30 23 24 24 24 25 22 21 20
11 15 15 9 13 9 12 14 13 22 30 28 38 36 44 51 44 43 40 33 37 36 34 31 26 26 29 28 26 26 25 29
2 5 14 20 20 20 18 12 19 16 21 23 27 32 35 42 47 51 45 42 45 43 35 31 27 28 31 30 29 29 29 31
5 5 3 9 19 20 18 17 21 25 17 24 21 34 28 40 33 42 40 42 43 44 35 32 30 29 33 34 34 33 33 34
6 6 6 7 6 13 17 18 22 22 17 26 24 24 25 24 24 27 27 30 33 36 38 34 33 35 34 35 40 41 40 42
6 7 8 7 7 9 11 15 18 22 22 24 24 28 27 25 21 26 31 31 26 31 35 37 38 38 37 38 39 42 45 49

GFSFLT2_700_spd_099.txt.gz
Wind_Speed
25 25 27 33 39 77 49 44 37 31 30 28 24 15 14 9 10 11 12 13 15 14 14 12 11 9 7 5 4 1 4 3
29 30 31 33 42 59 32 43 41 36 34 30 24 20 20 13 10 12 14 16 17 16 15 12 10 8 6 5 3 2 2 2
28 30 29 32 13 42 23 54 47 39 37 32 25 20 27 17 14 18 18 20 18 16 15 12 9 7 5 4 2 2 2 3
28 25 24 20 10 32 19 47 41 43 39 32 31 21 19 19 19 22 21 20 19 19 15 12 9 6 5 3 1 1 5 4
28 16 20 9 9 9 20 34 32 41 42 34 32 27 23 22 23 25 25 24 24 20 16 13 10 8 6 3 1 3 5 5
25 14 20 16 13 13 20 26 32 28 40 36 33 33 30 23 24 27 26 26 23 19 16 14 12 8 6 4 1 2 7 6
23 14 19 19 17 17 17 25 34 36 42 38 36 33 29 29 28 26 27 26 24 21 19 16 13 11 8 3 1 3 8 7
20 14 20 22 22 19 22 27 30 39 38 39 34 39 33 31 30 30 30 28 26 23 20 17 13 11 7 4 3 5 8 9
20 15 18 23 25 27 25 25 24 33 37 42 37 41 34 34 29 32 28 31 29 26 23 18 14 12 9 7 4 7 8 10
18 17 15 20 26 29 29 33 29 28 35 41 38 39 35 37 37 37 33 30 31 29 22 17 15 12 9 8 8 9 10 10
16 18 16 18 19 21 27 31 36 36 37 42 46 39 36 37 42 37 33 34 31 27 23 17 15 12 11 11 13 13 11 13
14 16 17 16 16 20 30 35 37 38 47 51 41 47 38 44 48 43 37 37 34 29 24 20 18 15 15 16 18 15 15 14
8 9 12 15 12 8 19 35 40 39 45 51 42 44 50 41 47 33 39 36 32 27 24 23 22 18 17 18 18 19 15 15
10 7 5 12 14 9 6 8 22 41 50 44 39 40 45 47 40 36 38 37 34 29 27 24 24 21 18 20 22 20 19 17
9 10 8 10 6 5 3 13 13 33 45 45 45 31 44 48 35 37 35 38 33 30 27 24 25 23 23 22 23 25 23 22
8 11 9 9 4 7 8 24 23 21 24 28 35 47 41 40 35 40 42 40 35 32 30 30 29 28 29 25 25 27 23 27
5 4 6 10 7 6 12 13 28 25 27 31 36 30 36 33 39 46 52 37 41 38 37 37 39 35 31 29 27 28 27 29
2 2 2 5 13 15 14 12 12 13 16 28 28 30 32 30 29 42 44 38 42 42 45 46 44 34 33 36 30 29 29 32
1 1 3 5 1 10 14 15 15 19 21 21 27 28 27 32 31 39 38 46 48 50 44 40 37 38 35 35 32 33 32 34
4 3 3 5 8 3 7 16 16 23 21 15 20 24 27 31 26 30 33 28 36 38 32 31 38 37 37 41 37 39 38 38

GFSFLT2_700_spd_102.txt.gz
Wind_Speed
23 23 26 29 31 31 38 45 39 40 39 32 40 22 15 21 15 11 7 6 13 15 15 14 13 11 10 8 6 4 4 6
27 27 29 33 35 32 40 47 42 42 42 38 32 25 23 18 15 14 15 14 15 15 15 13 12 10 9 8 7 5 5 5
28 29 32 32 31 35 46 53 55 50 50 43 35 22 25 18 15 15 18 19 18 16 16 14 12 11 10 8 5 4 4 5
28 32 30 27 23 19 21 40 48 50 47 44 35 26 20 22 17 19 21 21 20 19 16 14 12 11 9 7 3 2 5 3
29 31 27 20 16 13 10 21 28 42 54 42 39 29 26 27 22 24 24 24 22 22 19 16 13 10 9 7 5 2 5 2
28 28 25 13 12 8 15 1 28 55 55 51 34 33 26 28 28 27 25 25 24 21 19 17 14 11 9 8 6 4 5 1
28 25 22 12 12 7 2 2 39 39 40 40 35 32 28 23 27 25 25 26 24 23 22 18 14 13 10 7 4 3 3 0
28 23 17 14 11 11 10 9 12 25 42 40 36 33 30 26 27 28 27 27 26 24 22 18 16 14 12 7 5 3 1 2
29 25 15 14 17 16 15 15 15 24 31 37 38 36 33 30 28 30 30 29 27 27 24 20 18 16 13 10 5 4 5 4
29 23 13 14 17 19 18 15 18 23 24 33 39 39 36 34 29 33 30 31 30 29 26 21 19 17 14 8 6 6 5 8
29 16 11 13 15 19 23 21 22 22 23 27 34 42 39 36 31 34 30 32 30 30 26 23 20 18 14 10 7 8 8 9
23 9 9 12 14 16 18 23 27 30 32 29 28 39 39 43 38 37 32 35 32 32 28 25 20 17 15 11 10 12 12 12
16 5 10 13 15 15 18 22 30 34 35 36 33 40 40 36 42 42 39 36 37 39 28 27 25 21 19 17 13 14 13 14
13 6 7 11 13 15 21 24 27 31 41 41 40 36 44 38 41 45 47 43 43 32 30 28 25 22 19 17 16 18 15 15
10 7 9 11 12 12 9 11 16 33 37 38 34 34 43 42 38 41 39 44 39 34 30 28 25 20 24 19 21 19 22 21
8 7 6 9 10 9 5 3 5 10 30 42 43 35 39 36 43 40 39 40 33 34 30 31 26 26 24 20 25 23 27 27
5 5 5 6 7 7 3 3 5 5 23 36 33 40 34 28 33 40 34 32 37 37 45 34 35 30 27 28 28 29 31 28
4 3 4 4 3 9 4 10 10 12 19 23 29 30 30 37 44 42 35 31 37 49 41 36 31 31 36 38 33 33 33 31
5 1 2 4 1 3 8 9 16 11 15 24 23 29 28 36 34 32 32 31 39 37 39 35 35 39 44 38 37 34 36 35
6 2 1 4 5 5 6 12 17 14 13 17 26 22 18 26 27 21 21 30 32 28 26 31 39 45 43 40 31 35 34 37

GFSFLT2_700_spd_108.txt.gz
Wind_Speed
21 20 19 20 21 22 24 25 28 33 38 40 33 30 27 23 28 26 25 25 23 21 20 21 19 15 12 15 15 14 11 10
22 22 23 22 22 24 26 29 31 34 38 38 39 34 35 39 19 32 24 26 25 22 21 20 17 18 16 16 13 13 12 12
22 23 24 24 25 27 31 35 36 40 41 40 40 38 37 37 24 27 30 27 28 25 22 19 16 16 14 13 13 11 12 12
22 22 24 26 26 28 32 33 36 43 43 41 41 41 36 28 33 28 26 30 26 25 23 21 19 16 15 14 13 11 12 12
24 24 25 27 28 28 27 24 28 35 39 43 41 49 40 39 37 35 32 29 32 28 25 18 18 16 14 14 12 11 10 10
24 25 28 27 30 28 22 20 20 36 48 46 48 41 33 41 41 36 34 33 33 32 21 27 20 18 16 13 12 11 10 11
24 25 29 29 29 27 19 18 23 25 31 44 48 45 45 41 42 37 35 33 31 28 31 28 23 21 16 15 14 13 13 10
22 25 30 31 31 22 17 15 10 13 14 50 46 49 48 47 43 38 35 33 32 32 32 27 24 21 17 16 14 13 9 5
21 25 31 32 29 18 14 10 13 19 18 44 47 50 51 43 40 39 36 35 34 34 34 30 25 22 17 16 15 12 10 6
23 25 31 32 19 15 11 7 8 11 26 44 47 51 49 44 39 37 36 36 36 36 34 30 27 23 20 18 16 14 10 8
23 25 31 26 12 13 11 6 1 2 27 31 37 49 43 39 41 36 35 36 37 37 35 31 27 25 23 20 18 16 11 9
22 23 28 18 11 12 13 10 8 9 11 30 45 47 39 36 36 35 34 36 38 38 36 33 28 26 24 22 22 19 16 11
19 21 25 16 13 11 12 15 14 12 21 20 29 37 43 38 36 33 38 35 36 37 37 35 32 31 29 27 25 22 18 13
18 19 22 18 15 14 13 14 16 17 19 24 24 34 37 40 38 38 37 34 41 40 39 38 36 34 32 29 28 25 18 14
18 19 20 18 14 17 17 17 19 23 28 30 34 32 36 39 37 41 42 39 38 42 41 40 37 37 35 33 31 27 18 16
18 19 19 16 14 15 18 18 20 23 25 30 37 39 42 41 37 44 46 43 43 42 43 42 40 39 36 34 31 22 23 22
20 17 18 15 14 13 17 18 17 23 24 29 45 47 49 48 42 36 46 47 45 43 44 45 44 38 37 38 35 32 26 25
21 16 16 14 13 11 13 17 19 22 22 26 41 50 53 51 46 37 48 46 48 43 50 46 36 39 37 39 35 37 31 30
17 15 14 14 11 8 11 17 13 17 22 23 29 42 44 55 46 47 47 47 45 40 48 40 42 39 38 36 37 31 29 21
16 15 13 12 8 5 8 14 12 14 17 15 25 30 43 33 47 48 47 41 43 40 42 52 49 43 45 39 38 38 29 30

GFSFLT2_700_spd_111.txt.gz
Wind_Speed
18 18 16 17 17 17 20 24 26 29 34 36 38 38 34 39 26 16 30 28 26 22 20 19 18 16 15 13 12 11 6 8
18 20 18 18 19 20 20 23 29 32 33 36 37 39 38 39 22 21 26 28 24 23 22 21 16 16 16 18 13 10 15 14
19 21 21 20 21 22 23 24 30 35 37 36 37 37 36 27 21 30 27 26 27 25 23 21 20 21 20 15 10 12 15 13
22 24 24 21 23 25 26 27 31 38 42 41 41 38 34 28 27 34 27 28 29 27 25 21 19 22 14 14 17 16 14 12
24 30 25 23 24 27 29 31 32 38 41 43 40 39 38 34 29 36 32 34 34 31 28 23 21 18 17 16 15 13 11 12
28 27 24 24 26 30 32 32 34 32 31 36 42 45 43 37 32 31 41 37 33 30 28 28 22 19 16 17 14 14 13 13
25 25 23 25 28 32 34 35 29 26 25 33 41 41 42 43 44 35 40 39 35 33 31 27 22 14 18 16 16 14 13 13
27 26 23 26 29 35 35 33 24 27 30 32 40 41 42 45 44 42 42 39 37 35 31 27 25 23 20 18 15 13 14 14
30 26 24 26 30 35 33 21 22 23 25 28 31 45 45 40 33 50 45 41 39 37 32 30 25 23 23 18 17 17 15 12
30 28 25 25 30 33 18 17 20 26 27 32 29 42 47 49 40 48 46 44 40 39 35 32 27 26 22 21 20 16 15 11
31 27 26 24 28 25 15 17 16 13 19 27 31 37 47 43 45 49 44 43 41 38 35 32 29 28 25 23 21 19 16 12
28 28 25 24 25 21 17 20 14 8 11 19 35 45 40 48 49 48 46 43 42 40 39 35 31 29 26 24 23 21 17 15
26 27 23 22 24 19 18 20 14 5 6 18 40 45 40 46 48 45 43 43 42 41 39 37 37 33 29 28 27 24 20 18
24 26 22 20 23 18 19 18 13 10 8 8 25 35 42 50 47 45 43 42 44 42 41 40 39 34 32 29 29 28 24 20
25 24 21 19 22 18 18 19 17 17 18 19 14 31 38 39 41 42 42 41 41 40 40 41 39 38 35 33 33 31 25 24
26 24 19 19 21 18 16 18 18 16 20 21 23 23 38 46 45 43 41 42 41 40 41 40 39 41 38 36 33 30 27 29
26 24 18 19 19 17 17 18 19 19 21 22 24 28 37 36 45 43 45 45 44 41 43 44 42 41 39 39 36 32 31 30
27 25 18 19 18 17 17 18 21 23 23 26 28 31 38 40 43 46 47 48 48 45 42 44 44 42 41 39 35 35 34 37
29 22 20 18 17 16 17 19 21 23 24 26 30 33 40 47 45 48 48 41 49 48 46 45 45 48 43 42 42 38 39 39
30 20 19 17 15 15 16 18 19 20 19 21 28 32 38 49 50 53 49 47 40 53 50 46 48 48 46 49 45 39 36 37

GFSFLT2_700_spd_114.txt.gz
Wind_Speed
15 16 17 14 13 12 13 14 19 22 26 28 35 35 26 30 32 22 22 19 19 21 21 16 16 16 16 14 13 12 11 9
16 18 18 16 15 15 15 17 20 23 26 28 31 31 29 34 33 27 23 21 19 21 21 18 19 19 18 17 15 14 14 14
16 19 20 19 16 17 18 20 24 25 26 29 30 30 30 35 29 23 26 23 22 22 23 22 22 21 19 16 16 15 11 11
16 19 21 22 19 18 21 24 27 28 30 31 32 34 34 32 28 25 29 26 26 25 26 24 23 24 22 22 17 13 12 10
20 19 20 23 21 20 22 25 29 31 32 33 33 34 35 33 29 28 28 28 27 30 29 26 24 21 21 20 16 10 10 10
22 19 19 23 23 22 24 27 30 33 33 36 34 34 35 35 31 31 28 29 33 31 30 27 24 22 22 17 14 13 12 14
20 19 22 23 25 23 26 30 33 35 35 32 31 34 33 38 34 33 32 26 38 34 31 29 27 25 21 18 15 14 16 15
26 26 27 26 28 27 28 32 35 37 32 25 25 25 30 39 39 39 31 31 38 35 33 32 29 26 23 19 13 16 15 14
27 29 28 29 28 31 30 33 34 27 21 24 27 28 36 36 40 39 38 31 39 38 36 34 31 28 24 19 17 16 15 15
28 30 29 29 28 31 30 31 25 18 18 24 28 32 29 32 37 43 39 37 45 41 39 35 31 26 23 20 18 18 17 15
25 22 28 28 30 31 29 28 20 17 19 24 30 38 39 34 40 36 46 45 46 44 40 37 32 30 25 20 20 21 18 15
23 23 27 28 29 30 27 26 20 18 19 23 25 34 35 35 44 38 45 47 48 44 41 36 33 30 27 24 24 23 20 19
24 22 26 25 27 28 25 22 19 17 19 21 21 27 41 51 43 48 37 48 45 43 38 36 36 33 29 28 28 25 24 21
26 26 24 24 25 27 24 21 18 17 17 16 11 22 32 36 45 43 44 48 48 45 42 42 39 34 32 30 28 28 27 23
28 30 26 23 25 24 22 21 17 19 17 14 4 23 30 30 42 44 48 47 47 46 43 41 38 36 33 33 32 33 26 24
24 29 27 25 25 22 21 21 14 15 17 16 7 12 32 33 44 48 48 47 46 45 42 41 39 40 37 37 33 30 28 26
21 21 25 27 24 22 20 21 14 15 17 17 17 15 14 36 47 50 49 45 45 44 44 43 41 38 36 35 33 32 28 28
25 24 26 28 24 22 20 20 16 16 19 19 19 20 19 21 39 42 43 44 45 45 44 44 43 40 38 38 36 31 31 33
23 27 28 27 23 22 19 19 18 16 18 19 23 23 26 28 35 41 44 45 45 46 45 44 43 39 39 40 37 33 33 37
23 29 30 27 23 20 18 19 18 16 19 21 23 25 28 30 35 35 40 46 48 48 47 45 45 44 44 43 41 39 38 42

GFSFLT2_700_spd_117.txt.gz
Wind_Speed
11 11 12 13 13 12 12 12 13 13 16 19 22 23 26 30 24 15 13 28 29 18 18 15 14 14 16 16 14 13 12 12
13 11 12 13 14 15 14 14 16 16 16 19 20 23 27 27 24 21 30 24 21 17 15 16 16 16 17 17 15 14 14 14
15 14 14 15 15 17 17 17 18 19 19 20 22 23 25 26 25 25 30 23 22 18 17 19 18 20 20 18 16 16 14 12
16 16 17 18 17 17 18 19 20 22 21 23 24 25 25 25 24 26 25 20 26 23 20 21 22 23 23 21 18 15 13 13
18 19 21 19 18 17 18 20 22 25 24 27 26 27 26 28 28 28 26 27 25 29 29 26 24 23 21 20 18 17 15 12
18 21 23 21 19 19 18 21 24 27 27 29 29 28 28 30 29 29 29 22 23 20 28 27 27 25 22 19 18 16 16 13
23 24 25 24 24 23 22 21 26 30 32 30 31 30 30 27 30 28 27 23 22 21 28 30 29 28 26 22 20 16 14 11
27 27 28 28 28 27 26 24 26 31 36 33 31 30 27 29 29 33 31 30 19 24 30 32 32 28 26 23 20 16 14 14
30 29 32 29 28 30 28 27 28 32 36 31 23 22 21 26 25 30 34 30 28 32 37 34 33 30 27 24 21 19 16 14
34 33 34 30 28 31 29 29 29 34 32 25 21 22 25 28 25 31 38 36 33 28 41 35 35 33 29 26 22 18 17 16
36 34 32 32 28 30 30 30 29 33 29 24 23 23 28 33 29 30 42 37 38 36 40 36 37 34 29 26 22 18 18 18
32 33 32 26 28 29 31 28 28 32 26 23 24 25 27 32 39 33 36 37 40 40 38 40 38 35 32 29 24 22 20 19
30 33 28 29 26 25 27 26 27 31 24 22 26 27 31 34 43 36 42 45 43 43 44 44 43 39 34 31 27 24 22 21
31 33 29 27 25 22 25 26 26 28 23 22 24 27 30 36 37 47 42 44 48 46 47 47 44 40 36 32 31 28 24 23
28 28 26 27 25 22 25 25 25 25 20 18 23 20 18 27 39 43 41 43 48 49 51 49 45 42 37 36 35 32 25 24
28 29 30 28 27 24 25 24 26 21 18 16 21 16 14 17 38 40 44 42 47 51 49 45 43 40 40 40 34 27 26 23
30 25 26 25 25 26 24 24 26 19 18 17 20 16 7 15 26 37 44 45 46 50 47 46 41 41 40 39 36 32 28 25
24 30 26 22 23 24 22 24 25 19 17 17 19 18 12 13 22 25 38 40 47 45 43 43 42 41 40 37 34 30 26 26
19 20 26 23 25 24 22 23 25 19 17 18 19 21 19 16 22 39 41 46 44 43 43 43 42 42 39 36 35 33 30 29
29 25 19 26 28 24 22 23 24 18 17 17 19 20 19 22 18 24 41 46 48 44 43 43 43 43 40 38 36 35 33 33

GFSFLT2_700_spd_123.txt.gz
Wind_Speed
8 7 8 8 8 7 6 4 4 4 5 6 8 10 13 14 17 19 16 15 13 8 8 12 12 13 12 13 14 14 15 12
13 11 10 10 10 10 9 8 7 7 8 8 8 10 14 17 16 17 15 16 10 9 12 16 18 17 14 15 15 15 13 15
16 15 15 13 14 11 12 12 10 9 11 11 11 14 16 18 19 16 15 16 16 19 17 11 15 18 16 16 17 17 14 12
21 19 17 17 17 14 13 14 15 12 12 13 15 16 18 20 21 18 18 19 19 19 14 14 14 19 19 18 19 18 15 16
26 22 20 20 20 18 18 17 18 16 14 15 17 19 19 20 21 23 21 21 24 24 22 16 17 19 21 19 21 20 15 18
29 27 25 25 25 23 21 22 21 21 19 17 18 20 21 22 23 25 24 24 25 26 28 25 24 22 23 22 23 17 19 20
32 30 30 28 28 27 25 26 23 25 25 22 20 21 23 24 24 27 26 27 26 30 25 17 18 22 21 22 22 22 21 20
35 35 34 32 31 30 28 28 28 26 28 26 24 24 24 25 24 27 29 28 26 32 26 22 17 31 19 23 25 24 20 19
35 38 37 36 33 33 28 29 30 31 29 27 27 25 26 26 24 24 28 27 33 27 23 26 20 28 28 27 26 24 21 18
34 30 41 40 39 38 35 32 28 33 31 28 27 27 27 27 26 25 22 28 35 22 29 23 21 28 28 29 29 25 23 21
38 39 40 40 39 43 40 35 31 31 34 29 27 27 28 29 28 27 24 27 25 24 30 36 30 33 30 32 31 29 24 23
32 32 33 35 35 36 40 38 32 30 33 31 27 27 30 31 30 28 29 30 31 32 31 30 35 31 32 34 32 29 26 24
30 30 31 33 35 35 36 35 28 29 30 31 26 27 29 31 31 29 29 34 33 31 28 38 40 34 37 36 34 30 28 27
28 29 30 30 32 32 36 31 27 28 29 27 27 26 28 30 30 30 30 29 33 31 42 43 42 39 43 42 39 31 30 28
26 27 28 26 30 32 32 29 29 31 29 28 25 24 28 31 30 31 29 32 35 37 38 43 41 47 44 43 41 39 33 30
24 23 24 27 27 29 28 29 31 31 28 24 25 24 26 29 31 31 30 31 37 40 41 36 46 47 47 41 38 37 37 32
22 22 24 27 27 30 28 29 30 29 29 28 25 24 25 27 30 29 27 32 39 35 33 39 55 44 51 46 43 38 35 33
21 20 23 25 27 30 30 30 30 31 30 26 25 24 24 27 29 24 26 29 38 36 41 45 57 45 50 48 45 43 38 31
21 21 23 24 24 29 30 34 34 34 29 28 25 24 24 27 25 22 24 25 24 33 39 31 48 49 53 47 46 42 40 27
20 22 24 25 24 27 30 34 35 33 29 26 26 26 24 27 24 22 23 23 26 30 36 45 49 54 51 49 46 45 39 30

GFSFLT2_700_spd_126.txt.gz
Wind_Speed
10 7 4 4 5 4 4 4 3 4 4 4 4 6 8 9 13 11 13 13 13 8 8 14 7 8 7 10 13 17 14 13
13 11 8 7 7 7 5 5 6 5 6 6 6 7 9 11 11 14 13 12 11 5 7 12 12 14 12 12 14 18 16 15
19 15 14 12 12 12 10 7 7 7 7 7 8 9 12 12 12 13 15 13 11 10 13 13 22 16 16 15 16 18 21 18
26 21 19 17 17 17 14 13 10 10 9 8 10 12 14 14 14 15 17 16 16 17 17 16 20 14 14 15 17 19 23 22
32 27 22 22 20 19 19 17 16 15 14 11 12 14 16 16 17 16 16 20 20 18 19 18 13 12 13 15 21 22 25 22
32 32 28 26 26 23 23 22 20 20 18 18 15 15 17 16 19 20 19 20 21 20 20 23 19 14 16 19 22 21 22 22
29 35 33 30 30 27 25 26 24 24 23 22 21 19 20 18 20 21 23 22 22 23 22 23 22 24 24 22 23 20 24 19
35 38 35 33 33 31 28 28 27 25 26 25 23 22 23 22 21 22 22 24 22 22 21 24 23 22 26 19 25 24 28 17
31 36 39 37 36 36 33 31 30 25 27 29 26 24 26 23 21 22 23 23 20 23 24 29 27 23 17 20 25 28 29 19
28 30 38 44 42 38 35 33 31 29 27 27 29 26 27 25 23 22 24 24 22 27 20 27 29 25 27 25 27 28 24 22
32 30 30 37 39 35 37 37 37 33 33 31 28 28 29 27 24 23 25 27 26 23 27 22 24 32 28 29 31 30 24 25
41 45 43 41 39 37 35 35 36 37 37 36 30 30 31 29 26 26 26 28 26 28 22 19 20 31 29 26 30 32 25 25
36 33 31 32 35 38 36 36 30 32 34 36 33 30 30 29 26 26 27 28 26 27 25 24 15 29 29 27 27 33 28 26
34 30 28 30 31 36 36 34 35 30 31 32 31 30 28 28 26 26 26 27 27 28 31 31 27 27 37 35 38 30 36 28
24 24 25 27 28 30 33 36 33 29 28 28 29 29 28 27 26 27 26 27 28 28 32 32 31 26 42 43 44 42 33 31
22 23 23 24 26 26 32 30 31 27 28 27 29 30 28 28 27 26 26 27 29 30 30 31 36 31 42 44 44 39 33 33
20 23 23 23 24 23 31 26 27 27 29 30 31 31 30 29 26 26 26 27 28 29 31 31 35 38 37 47 46 45 40 36
16 20 22 22 22 24 28 27 28 30 30 32 33 32 31 27 26 27 25 25 28 29 32 29 31 39 37 48 45 44 44 40
15 18 20 21 22 24 26 28 30 29 29 32 31 32 30 25 26 27 26 25 27 29 27 33 48 40 41 48 48 42 39 36
14 17 18 24 19 23 24 26 30 28 30 30 29 33 28 26 26 25 26 26 27 26 28 24 37 38 42 51 46 45 40 38

GFSFLT2_700_spd_132.txt.gz
Wind_Speed
18 16 12 8 7 5 2 2 2 1 3 3 5 6 8 9 7 5 6 6 8 8 5 10 22 25 17 16 14 14 13 13
20 16 17 11 9 9 8 4 2 1 2 4 6 7 7 6 5 6 6 8 10 9 6 7 21 25 24 15 15 14 13 17
21 17 18 16 12 11 11 10 7 5 3 3 6 7 7 6 6 7 8 9 10 10 7 7 15 18 18 16 17 17 14 13
21 20 20 20 18 14 15 14 12 10 7 6 6 7 7 6 6 8 9 10 11 11 11 9 14 12 15 17 23 22 19 17
23 24 23 24 23 20 18 18 16 15 13 11 10 10 9 8 5 6 7 9 11 10 11 11 10 14 17 19 24 25 22 17
26 26 26 27 26 26 22 20 20 19 18 16 15 15 14 12 9 9 8 9 10 11 11 12 12 14 17 18 21 26 25 18
27 27 28 29 30 29 27 25 23 22 22 20 20 20 19 18 15 14 12 10 9 9 12 12 15 13 14 13 14 18 22 22
28 29 29 30 31 32 31 29 27 26 25 24 23 22 23 23 20 17 16 12 10 10 12 13 20 19 20 19 23 22 23 24
33 33 32 32 33 32 30 28 30 30 29 28 26 25 25 25 24 21 18 16 12 11 12 16 13 8 11 19 24 24 26 23
35 33 33 34 35 34 31 32 31 32 32 31 29 28 27 26 26 25 21 19 16 13 14 15 18 16 12 15 22 30 28 25
41 40 39 37 37 36 34 34 33 32 35 34 32 28 28 28 26 24 24 22 19 15 16 16 15 22 16 13 24 26 30 27
44 43 38 35 35 37 36 33 28 26 28 34 32 31 32 32 30 28 25 24 21 18 18 18 15 18 18 18 21 22 26 23
41 38 40 38 37 37 38 35 32 27 29 32 33 34 34 36 34 30 28 24 21 21 21 21 17 19 21 14 18 28 24 27
39 41 39 40 40 39 38 36 37 37 37 34 33 34 33 35 34 33 31 29 24 25 22 22 21 20 25 20 20 31 35 33
37 34 34 35 35 36 37 38 41 45 42 38 35 36 34 36 35 34 33 33 29 25 23 23 22 22 24 30 22 36 30 36
39 37 38 42 41 38 40 43 46 48 44 37 33 34 34 36 36 35 34 33 32 25 23 25 24 25 28 33 30 31 29 31
43 42 40 40 43 46 49 46 47 39 34 31 32 34 32 34 36 35 36 33 30 26 25 28 29 25 29 33 35 34 32 35
37 38 35 41 35 37 37 37 35 32 26 26 26 28 29 33 35 35 34 33 30 28 28 29 30 29 30 37 37 40 36 34
35 36 37 32 32 31 28 29 28 27 24 25 28 29 31 33 34 36 34 36 31 30 31 32 32 32 28 38 34 38 42 37
25 26 26 26 26 25 24 26 30 29 26 27 30 30 31 33 37 37 37 36 33 31 32 33 33 30 31 32 32 40 43 47

GFSFLT2_700_spd_135.txt.gz
Wind_Speed
15 17 14 12 8 6 4 2 2 2 1 2 4 6 8 9 9 8 6 5 7 10 11 10 12 16 20 20 13 15 14 14
17 19 18 13 12 9 5 4 2 1 1 1 4 6 7 7 8 8 6 6 7 10 13 10 8 16 22 22 16 18 15 12
20 19 18 16 14 12 9 7 5 3 2 1 2 5 6 7 8 9 7 7 8 10 11 9 6 12 15 16 20 19 13 15
22 19 18 19 17 16 14 11 10 8 8 5 3 5 6 7 7 8 8 7 8 9 9 9 8 12 15 13 18 21 14 12
21 22 22 22 20 20 19 16 14 12 12 11 8 7 8 9 8 7 6 7 7 8 8 8 10 13 15 15 17 21 20 16
24 25 26 26 26 25 23 21 18 16 15 16 15 12 11 12 11 11 10 9 8 8 8 9 13 15 17 19 18 17 24 20
23 23 21 25 30 30 28 26 24 21 20 20 20 19 17 16 16 16 14 13 10 10 8 11 14 19 18 20 14 16 19 20
30 27 26 25 25 28 30 30 28 26 25 25 24 23 22 21 21 20 18 16 14 12 12 11 16 21 22 21 15 15 16 18
34 32 30 29 28 27 28 29 29 28 28 29 29 26 26 24 24 24 22 19 18 16 16 12 16 19 15 20 12 18 20 19
28 36 34 33 33 32 30 31 30 30 29 29 30 30 29 28 27 26 24 23 22 20 18 16 13 17 17 15 12 9 23 23
34 37 37 36 35 34 34 33 30 32 36 33 32 32 31 30 29 28 26 26 25 24 22 19 15 15 18 24 16 16 21 28
38 39 39 37 38 37 35 33 34 35 36 34 30 31 33 32 32 30 29 28 27 27 25 21 19 16 14 21 29 17 23 25
35 41 41 39 41 39 39 42 37 39 35 28 26 24 27 30 31 32 33 33 27 27 27 25 24 20 17 24 23 18 19 20
57 40 42 40 38 38 39 36 38 37 35 32 31 31 30 33 35 37 36 32 31 30 29 27 26 23 22 16 28 26 21 17
37 43 41 41 39 40 40 38 39 38 37 37 39 37 34 34 34 37 37 35 35 34 28 30 27 24 26 23 33 31 23 21
30 36 37 38 37 36 34 33 35 35 36 38 39 41 39 38 36 38 37 36 36 35 33 31 31 28 26 28 27 29 31 22
31 33 34 34 32 33 31 31 33 37 41 44 48 41 43 40 37 36 39 37 36 35 34 32 32 29 29 26 27 28 36 32
29 32 35 35 33 31 38 35 38 44 46 48 44 35 37 37 35 36 39 40 37 37 35 35 35 30 30 29 29 31 33 37
43 33 31 29 26 29 36 41 36 33 33 35 34 33 32 31 32 31 35 37 40 39 37 36 35 33 32 32 31 31 34 36
39 38 31 32 35 36 36 40 32 30 30 31 30 31 33 32 33 33 36 32 39 40 39 37 35 33 33 35 31 34 33 41

GFSFLT2_700_spd_138.txt.gz
Wind_Speed
13 15 13 10 9 7 5 3 1 2 2 1 1 3 4 5 6 5 5 7 7 9 11 13 10 9 10 9 10 9 11 13
13 13 13 12 10 9 7 3 1 0 2 1 1 3 4 4 4 4 5 7 8 9 11 12 10 5 6 6 9 13 12 11
17 16 15 12 10 10 10 8 5 3 1 1 1 2 3 3 4 4 5 7 9 9 9 11 9 5 5 6 8 14 10 11
20 18 16 13 14 13 13 12 9 7 5 4 1 2 3 4 3 3 4 5 8 9 9 9 9 6 6 8 14 8 19 13
19 19 17 16 18 17 17 16 14 11 10 8 7 6 4 5 5 4 4 5 8 10 11 9 9 8 9 11 11 13 12 17
22 19 20 22 21 23 23 21 18 15 14 14 12 11 10 9 8 8 8 8 9 11 11 11 10 12 13 14 14 16 17 26
26 22 22 24 25 24 26 26 24 21 19 18 18 17 15 15 14 13 13 12 11 11 12 12 13 14 15 16 17 18 17 24
35 29 28 27 27 26 22 27 29 27 25 23 23 22 21 20 19 18 17 16 15 14 14 14 14 15 14 17 17 14 15 21
43 42 37 33 32 29 26 25 25 28 28 27 27 27 26 25 24 24 22 21 19 18 18 18 16 14 16 14 12 15 10 16
39 37 41 41 37 36 30 27 27 27 27 27 28 27 29 30 30 28 27 25 23 23 22 22 19 16 13 16 15 11 10 12
40 44 40 38 38 38 36 33 32 31 30 30 32 32 31 32 32 32 31 30 27 25 25 25 21 20 16 15 17 23 14 17
39 41 42 42 38 41 40 38 37 35 35 33 35 34 32 33 33 33 34 33 31 28 28 26 24 22 22 19 15 22 24 24
38 42 42 44 44 44 44 42 38 38 37 38 35 33 30 29 29 32 34 35 33 31 29 26 28 28 26 24 18 19 18 22
41 38 40 41 45 41 41 40 41 41 40 39 37 30 29 29 23 24 30 33 35 35 30 29 29 33 31 25 25 21 25 21
45 39 38 43 50 45 45 42 43 41 40 34 35 32 34 33 30 31 29 35 38 38 33 32 33 34 35 31 28 25 17 19
38 36 36 43 42 43 43 46 43 37 32 40 35 34 33 34 33 34 33 37 39 38 37 35 32 35 35 31 28 27 20 24
33 33 31 36 40 41 39 33 33 27 33 29 27 35 37 38 40 39 41 39 39 39 37 38 37 39 34 31 33 27 26 22
22 27 27 25 30 32 29 35 30 27 30 29 35 39 42 40 41 40 36 36 36 40 38 37 39 38 34 33 33 31 27 25
26 26 26 29 29 29 22 27 28 26 31 38 42 40 35 31 36 36 34 35 36 39 40 39 41 38 36 36 37 32 31 29
30 28 27 28 26 30 26 25 26 27 31 34 37 37 30 30 34 36 35 35 35 36 38 41 42 40 39 38 39 33 33 33

GFSFLT2_700_spd_141.txt.gz
Wind_Speed
8 8 10 8 4 2 1 2 2 2 2 1 1 1 2 3 4 3 3 3 4 6 9 8 7 7 3 5 6 6 7 7
13 11 11 10 7 5 5 5 3 2 1 1 1 0 1 2 3 3 3 3 5 7 10 9 9 5 3 5 6 7 10 12
17 16 13 11 8 7 6 6 6 6 4 2 1 1 1 2 3 3 3 3 5 7 10 10 9 2 2 5 5 5 6 7
22 20 16 14 10 10 9 10 8 9 8 6 4 3 2 3 3 4 3 2 3 5 9 10 11 5 3 7 6 6 6 9
25 22 20 17 15 13 14 15 15 13 12 10 9 7 5 4 5 5 5 5 5 7 8 10 10 8 4 5 8 8 11 11
29 25 24 21 18 16 17 18 18 16 14 14 12 10 10 8 7 8 9 9 9 9 9 10 9 11 9 8 10 10 13 15
34 28 25 25 22 21 19 20 23 21 20 19 17 15 14 13 13 12 13 13 14 12 11 12 11 10 11 10 11 13 13 16
38 36 33 29 25 24 23 24 26 26 25 24 22 20 19 19 18 17 18 18 18 17 15 15 14 10 11 11 12 14 17 17
42 41 37 35 32 28 29 27 27 29 28 29 28 26 24 23 23 23 23 22 22 21 20 19 17 14 12 12 12 13 16 12
32 40 42 44 41 36 37 34 33 31 30 29 29 29 29 29 29 28 28 27 26 26 23 23 22 18 15 14 13 16 14 10
34 36 38 39 41 44 41 43 40 38 35 32 31 31 30 31 31 31 32 32 31 30 27 26 25 22 20 19 18 15 16 17
32 34 37 39 43 45 45 47 45 44 42 37 35 35 33 35 34 33 34 36 35 33 32 30 28 24 23 23 24 19 17 20
35 37 36 38 44 50 50 47 46 44 46 43 38 38 39 38 34 35 35 37 36 35 34 32 31 29 28 28 27 26 19 17
40 42 41 41 39 47 52 54 51 47 49 43 38 37 40 35 31 27 31 31 32 34 36 34 34 31 30 26 31 31 26 17
43 44 46 46 46 41 46 54 57 50 49 46 43 43 46 36 33 29 29 27 24 28 31 33 34 33 34 34 40 34 28 21
49 48 49 45 43 46 44 53 56 55 46 47 46 51 49 45 50 43 40 29 29 28 27 31 35 37 35 30 35 35 33 25
46 44 42 40 37 41 46 52 55 48 47 42 38 36 31 36 41 33 31 26 34 35 36 35 35 38 38 35 36 35 33 28
38 39 37 30 29 34 41 44 45 46 40 46 35 32 34 26 29 31 32 35 39 41 38 38 36 38 39 40 40 38 33 30
30 30 30 28 30 28 31 40 44 45 40 37 26 26 29 29 34 32 36 34 39 39 38 38 37 39 40 39 41 38 35 30
26 26 23 23 24 27 29 32 37 38 34 21 27 30 27 27 32 33 35 34 34 35 37 37 38 39 40 41 40 35 36 37

GFSFLT2_700_spd_147.txt.gz
Wind_Speed
19 16 12 8 6 4 5 5 5 4 4 3 2 3 5 5 5 5 4 2 0 2 4 6 8 8 7 6 6 6 8 4
24 21 18 14 9 6 8 9 8 8 7 6 6 6 6 6 6 6 5 4 2 1 3 6 8 8 6 6 6 4 9 13
29 26 24 20 15 11 11 12 10 11 11 10 10 8 8 8 8 8 7 6 4 2 2 4 7 8 6 4 5 5 7 7
34 32 27 26 22 17 14 14 13 13 12 12 11 11 10 10 9 9 8 8 6 5 3 4 6 7 5 3 4 5 10 11
36 38 32 30 28 24 20 17 16 15 16 15 14 13 12 12 11 10 9 9 8 7 6 7 7 8 6 4 3 4 11 11
35 39 40 34 32 28 25 22 17 17 18 18 17 16 14 13 11 11 11 11 11 10 10 10 9 10 9 9 6 5 7 12
31 40 42 40 35 32 30 27 22 20 21 21 20 19 18 18 17 15 15 15 15 14 14 13 13 12 11 11 12 8 8 12
22 34 41 43 38 36 34 31 28 25 24 24 22 21 21 21 20 19 20 21 19 19 18 19 18 16 16 14 15 13 12 12
19 20 32 42 42 39 38 35 34 30 27 27 26 26 26 26 24 25 24 23 23 23 22 23 23 21 19 18 17 17 16 15
29 24 22 32 41 42 40 39 38 37 34 32 28 28 30 31 29 31 30 30 28 27 26 27 27 25 24 22 21 21 20 17
33 31 27 30 30 39 43 43 42 42 42 39 38 34 33 34 32 35 36 37 34 32 30 30 30 28 28 29 24 23 25 22
34 35 35 32 35 35 40 45 49 47 46 47 44 43 38 37 35 38 39 43 40 38 35 34 33 31 31 30 31 26 27 26
36 37 36 36 34 37 41 43 45 47 48 48 50 52 45 42 42 43 43 44 43 42 39 36 36 35 34 36 36 32 30 30
37 40 41 39 39 38 39 43 45 46 47 49 50 53 60 49 48 48 49 46 47 47 43 40 38 37 39 38 39 37 33 32
40 41 45 45 43 45 45 46 49 51 52 51 52 53 57 54 51 50 52 54 51 48 46 43 41 39 39 42 42 41 37 34
40 43 46 50 51 49 50 50 50 52 54 53 53 54 57 59 57 57 56 56 54 50 46 46 42 42 44 43 41 40 39 37
40 45 46 49 53 57 59 57 56 52 53 56 57 56 55 55 58 57 58 55 55 51 46 47 52 55 33 43 40 37 38 39
36 38 42 48 50 52 58 60 61 60 58 60 61 58 58 58 58 60 57 56 54 52 46 46 34 37 41 47 40 35 39 39
37 41 45 45 46 49 48 56 61 60 57 59 56 54 56 57 63 55 52 52 54 50 30 41 33 33 43 48 39 38 35 37
35 36 32 34 39 38 42 48 52 51 48 50 50 48 50 52 53 52 50 51 66 47 31 34 38 39 33 57 49 38 35 37

GFSFLT2_700_spd_150.txt.gz
Wind_Speed
17 17 15 11 9 8 9 8 6 5 4 4 4 4 5 6 5 5 4 4 4 4 4 6 8 9 9 6 4 6 6 9
22 21 21 18 15 12 10 11 9 7 6 5 4 5 7 8 8 8 7 6 5 4 3 5 8 10 10 6 3 5 6 8
29 27 25 24 21 18 15 14 12 10 8 7 7 8 8 9 9 9 9 9 7 5 2 4 7 9 11 9 4 6 6 9
26 32 30 28 28 24 22 18 16 14 11 10 10 11 10 10 10 10 9 9 9 7 5 4 5 6 8 8 7 5 7 11
28 30 33 33 31 29 27 24 21 19 15 13 13 13 12 12 10 10 9 9 9 9 7 7 7 6 6 5 5 6 3 11
22 31 34 34 36 34 31 29 27 24 21 17 17 17 15 14 11 12 11 11 12 12 11 11 11 11 9 6 5 11 11 10
12 28 33 32 36 39 35 33 32 29 27 23 21 21 20 17 16 15 14 14 15 14 14 14 14 14 13 11 10 8 9 13
15 9 24 32 33 36 40 36 35 34 30 26 24 22 23 22 21 20 18 19 18 19 18 17 18 17 16 15 14 14 14 15
23 21 19 21 30 31 38 42 38 37 34 32 28 26 24 25 25 24 23 22 23 22 22 22 22 22 21 19 18 18 18 18
29 31 29 29 24 31 36 44 45 39 38 36 35 29 28 28 29 28 27 28 27 26 25 25 26 26 26 26 25 21 21 21
34 32 30 33 34 35 35 37 44 43 41 41 39 37 33 33 32 30 29 32 33 32 31 30 29 29 31 30 29 28 25 25
30 33 33 36 37 39 47 38 29 42 43 44 43 44 40 39 38 36 33 36 37 35 36 37 35 32 32 34 32 34 31 29
30 33 36 36 37 42 44 43 36 37 46 44 46 48 50 44 44 43 39 41 41 40 39 39 40 38 34 36 35 35 36 33
33 35 37 40 42 39 43 48 46 40 38 44 42 47 53 52 51 50 48 46 46 49 46 45 44 43 39 39 40 39 38 38
37 37 42 42 46 48 46 45 50 49 45 42 47 47 49 55 53 55 50 52 50 55 50 50 48 46 43 45 47 43 39 38
36 36 36 43 47 51 53 53 50 54 56 48 44 49 50 51 51 52 51 53 51 51 50 54 51 51 49 49 49 45 41 39
37 38 40 38 40 47 54 58 58 56 55 57 56 49 53 54 53 51 54 52 50 51 52 49 52 50 52 48 38 35 39 50
35 39 42 43 44 43 44 55 62 64 60 57 55 55 45 58 54 53 52 53 52 50 49 48 51 50 46 46 49 45 55 47
36 36 39 40 41 40 40 42 53 63 65 63 61 58 56 58 59 56 55 53 52 47 48 48 52 50 53 38 40 31 38 40
39 40 41 41 39 38 37 39 38 44 56 61 63 62 62 64 52 51 55 55 51 47 49 49 48 56 35 38 26 37 37 41